www.pogodaiklimat.ru

Погода и климат >> Архив погоды >> Франция >> Алистро


ПОГОДА в Алистро

  • Прогноз погоды в Алистро
  • Монитор погоды в Алистро

АРХИВ ПОГОДЫ в Алистро

Время (UTC), дата Ветер
(напр.,м/с)
 
Видим.   Явления Облачность Т
(С)
Тd
(С)
f
(%)
Тe
(С)
Тes
(С)
Комфортность P
(гПа)
Po
(гПа)
Тmin
(С)
Tmax
(С)
R
(мм)
R24
(мм)
S
(см)
22 13.06 ЮЗ 2-3
{3}
н/о н/о +18.4 +15.3 82 +19 +19 1016.5 1007.8
23 13.06 ЮЗ 3-3
{3}
н/о н/о +17.8 +15.1 84 +18 +18 1015.8 1007.1
00 14.06 ЮЗ 3-4
{4}
н/о н/о +20.4 +12.6 61 +23 +23 комфорт 1015.1 1006.5
01 14.06 З 1-3
{4}
н/о н/о +21.5 +13.1 59 +24 +24 комфорт 1015.1 1006.5
02 14.06 Ю 2-3
{3}
н/о н/о +18.6 +15.1 80 +20 +20 1015.3 1006.6
03 14.06 Ю 3-3
{3}
н/о н/о +16.6 +12.1 75 +17 +17 1015.0 1006.2
04 14.06 ЮЗ 3-4
{4}
н/о н/о +17.4 +10.5 64 +17 +17 1015.1 1006.4
05 14.06 ЮЗ 2-3
{4}
н/о н/о +19.8 +12.3 62 +22 +22 комфорт 1015.1 1006.4
06 14.06 Ю 2
{6}
н/о н/о +21.0 +12.9 60 +24 +24 комфорт 1015.0 1006.4 +16.4 +22.7
07 14.06 Ю 2-3
{3}
н/о н/о +25.4 +14.8 52 +28 +28 жарко 1015.2 1006.7
08 14.06 Ю 2-4
{4}
н/о н/о +27.1 +15.1 48 +30 +30 душно 1015.0 1006.6
09 14.06 Ю 2-4
{4}
25 км 6/4 1200 м
[Sc Ac trans]
+27.2 +12.8 41 +29 +36 жарко 1015.4 1006.9
10 14.06 ЮВ 3-4
{4}
н/о н/о +27.4 +12.2 39 +29 +29 жарко 1014.9 1006.5
11 14.06 Ю 2-3
{4}
н/о н/о +27.1 +15.5 49 +30 +30 душно 1014.9 1006.5
12 14.06 ЮВ 2-4
{4}
н/о н/о +26.5 +18.6 62 +31 +31 душно 1014.7 1006.3
13 14.06 Ю 2-4
{4}
н/о н/о +25.8 +14.9 51 +29 +29 душно 1014.8 1006.3
14 14.06 Ю 3-5
{5}
н/о н/о +25.9 +18.6 64 +31 +31 очень
душно
1012.8 1004.4
15 14.06 Ю 4-6
{8}
н/о н/о +24.1 +20.0 78 +30 +30 очень
душно
1013.5 1005.0
16 14.06 Ю 3-5
{6}
н/о н/о +24.5 +19.8 75 +30 +30 очень
душно
1012.6 1004.1
17 14.06 Ю 3-4
{5}
н/о н/о +22.7 +20.4 87 +29 +29 очень
душно
1013.1 1004.6
18 14.06 ЮВ 2-3
{5}
н/о н/о +22.8 +20.3 86 +30 +30 очень
душно
1013.1 1004.6 +21.1 +28.2
19 14.06 В 1-1
{4}
н/о н/о +22.2 +20.5 90 +29 +29 очень
душно
1013.2 1004.7
20 14.06 С 1-1
{2}
н/о н/о +21.8 +20.6 93 +28 +28 душно 1014.2 1005.6
21 14.06 С 1-2
{2}
н/о н/о +21.8 +20.4 92 +28 +28 душно 1013.8 1005.2
22 14.06 С 2-3
{3}
н/о н/о +21.7 +20.5 93 +27 +27 душно 1014.1 1005.5
23 14.06 С 3-4
{4}
н/о н/о +21.1 +20.3 95 +26 +26 душно 1013.8 1005.2
00 15.06 С 3-4
{5}
н/о н/о +20.3 +18.8 91 +24 +24 комфорт 1013.4 1004.8
01 15.06 С 3-5
{5}
н/о н/о +21.0 +18.4 85 +26 +26 душно 1013.3 1004.7
02 15.06 С 4-6
{6}
н/о н/о +20.7 +19.0 90 +25 +25 комфорт 1013.8 1005.2
03 15.06 С 3-4
{6}
6000 м 10/10 1500 м
[Cu med, cong]
+21.1 +18.7 86 +25 +25 комфорт 1014.3 1005.7
04 15.06 С 2-3
{3}
н/о н/о +20.7 +18.1 85 +25 +25 комфорт 1014.7 1006.1
05 15.06 СЗ 2-2
{3}
н/о н/о +21.4 +18.0 81 +26 +26 душно 1015.3 1006.7
06 15.06 С 1
{4}
н/о н/о +23.5 +17.7 70 +28 +28 душно 1015.3 1006.8 +20.3 +23.5
07 15.06 В 1-2
{2}
н/о н/о +25.9 +18.1 62 +30 +30 душно 1015.8 1007.3
08 15.06 В 2-3
{3}
н/о н/о +25.4 +20.0 72 +31 +31 очень
душно
1016.1 1007.6
09 15.06 В 1-3
{4}
6000 м 9/0 2000 м
[As op]
+24.6 +20.3 77 +30 +35 очень
душно
1016.4 1007.9
10 15.06 ЮВ 2-3
{3}
н/о н/о +26.5 +20.8 71 +33 +33 очень
душно
1016.1 1007.7
11 15.06 В 2-3
{3}
н/о н/о +25.5 +20.5 74 +32 +32 очень
душно
1016.3 1007.8
12 15.06 В 2-3
{3}
6000 м 9/0 2000 м
[As op]
+24.7 +20.0 75 +30 +36 очень
душно
1016.4 1007.9
13 15.06 СВ 2-3
{4}
н/о н/о +25.1 +19.7 72 +31 +31 очень
душно
1016.7 1008.2
14 15.06 СВ 2-4
{4}
н/о н/о +25.1 +19.0 69 +30 +30 душно 1016.6 1008.1
15 15.06 В 2-3
{4}
н/о н/о +24.3 +18.0 68 +29 +29 душно 1016.1 1007.6
16 15.06 СВ 2-3
{3}
н/о н/о +24.6 +18.1 67 +29 +29 душно 1015.6 1007.1
17 15.06 СВ 2-3
{3}
н/о н/о +24.1 +17.6 67 +28 +28 душно 1015.4 1006.9
18 15.06 СВ 2
{6}
6000 м 9/0 2000 м
[As op]
+22.9 +18.2 75 +29 +29 очень
душно
1015.8 1007.2 +22.9 +26.9
19 15.06 СВ 1-1
{3}
н/о н/о +21.6 +18.2 81 +26 +26 душно 1015.9 1007.3
20 15.06 С 1-1
{1}
н/о н/о +20.7 +17.9 84 +26 +26 душно 1016.1 1007.5
21 15.06 СЗ 1-1
{1}
н/о н/о +20.8 +17.8 83 +26 +26 душно 1016.4 1007.8
22 15.06 С 1-2
{2}
н/о н/о +20.8 +17.8 83 +26 +26 душно 1016.6 1008.0
23 15.06 ЮЗ 1-1
{1}
н/о н/о +20.1 +17.7 86 +24 +24 комфорт 1016.5 1007.9
00 16.06 ЮЗ 1-1
{1}
н/о н/о +19.6 +17.7 89 +24 +24 комфорт 1016.4 1007.7
01 16.06 З 1-1
{1}
н/о н/о +19.8 +17.8 88 +24 +24 комфорт 1016.0 1007.3
02 16.06 З 1-1
{1}
н/о н/о +19.8 +17.4 86 +24 +24 комфорт 1015.6 1007.0
03 16.06 Ю 1-1
{1}
8000 м 10/10 800 м
[St]
+19.4 +17.7 90 +23 +23 комфорт 1015.6 1006.9
04 16.06 В 1-1
{1}
н/о н/о +19.1 +17.4 90 +22 +22 комфорт 1015.6 1006.9
05 16.06 З 1-1
{1}
н/о н/о +19.7 +17.8 89 +24 +24 комфорт 1015.8 1007.1
06 16.06 СВ 1
{2}
н/о н/о +21.4 +18.4 83 +26 +26 душно 1016.1 1007.5 +18.6 +22.9
07 16.06 В 2-3
{3}
н/о н/о +23.8 +18.7 73 +28 +28 душно 1016.3 1007.8
08 16.06 В 2-3
{3}
н/о н/о +24.2 +18.8 72 +29 +29 душно 1016.4 1007.9
09 16.06 В 2-3
{3}
н/о н/о +23.8 +18.7 73 +28 +28 душно 1016.6 1008.1
10 16.06 В 2-3
{4}
н/о н/о +24.1 +18.5 71 +29 +29 душно 1016.7 1008.2
11 16.06 В 3-4
{4}
н/о н/о +24.4 +18.8 71 +29 +29 душно 1016.6 1008.1
12 16.06 СВ 2-3
{4}
н/о н/о +24.4 +18.6 70 +29 +29 душно 1016.2 1007.7
13 16.06 СВ 2-3
{3}
н/о н/о +24.2 +18.4 70 +29 +29 душно 1015.9 1007.4
14 16.06 В 2-3
{3}
н/о н/о +24.7 +18.6 69 +29 +29 душно 1015.8 1007.3
15 16.06 В 2-3
{3}
н/о н/о +24.7 +18.6 69 +29 +29 душно 1015.8 1007.3
16 16.06 СВ 1-3
{3}
н/о н/о +23.8 +18.7 73 +28 +28 душно 1015.4 1006.9
17 16.06 В 1-2
{2}
н/о н/о +23.3 +18.6 75 +29 +29 душно 1015.1 1006.6
18 16.06 СВ 1-2
{2}
н/о н/о +22.4 +18.6 79 +28 +28 душно 1014.8 1006.2 +21.5 +25.2
19 16.06 С 1-1
{2}
н/о н/о +20.7 +18.1 85 +26 +26 душно 1014.6 1006.0
20 16.06 С 1-1
{1}
н/о н/о +19.8 +18.1 90 +24 +24 комфорт 1015.0 1006.4
21 16.06 С 2-2
{2}
н/о н/о +19.5 +18.2 92 +23 +23 комфорт 1015.0 1006.4
22 16.06 С 2-2
{2}
н/о н/о +19.4 +18.2 93 +22 +22 комфорт 1015.2 1006.5
23 16.06 С 2-2
{3}
н/о н/о +19.9 +18.4 91 +24 +24 комфорт 1015.6 1007.0
00 17.06 СЗ 1-2
{2}
н/о н/о +19.5 +18.2 92 +23 +23 комфорт 1015.6 1006.9
01 17.06 З 1-2
{2}
н/о н/о +19.3 +17.4 89 +22 +22 комфорт 1015.2 1006.5
02 17.06 З 1-1
{2}
н/о н/о +18.1 +16.8 92 +19 +19 1014.9 1006.2
03 17.06 ЮЗ 1-2
{2}
н/о н/о +17.7 +16.7 94 +19 +19 1014.5 1005.8
04 17.06 С 2-2
{2}
н/о н/о +17.8 +16.7 93 +19 +19 1014.6 1005.9
05 17.06 С 1-2
{2}
н/о н/о +18.0 +17.0 94 +19 +19 1015.2 1006.5
06 17.06 С 1
{3}
н/о н/о +20.0 +18.0 88 +24 +24 комфорт 1015.4 1006.8 +17.5 +22.4
07 17.06 СВ 2-3
{3}
н/о н/о +22.8 +18.3 76 +28 +28 душно 1015.6 1007.0
08 17.06 СВ 2-3
{3}
н/о н/о +24.6 +18.1 67 +29 +29 душно 1015.6 1007.1
09 17.06 В 2-3
{3}
н/о н/о +25.0 +18.4 67 +30 +30 душно 1015.5 1007.0
10 17.06 СВ 3-4
{4}
н/о н/о +25.7 +18.9 66 +31 +31 очень
душно
1015.5 1007.0
11 17.06 С 2-3
{4}
н/о н/о +26.5 +18.9 63 +32 +32 очень
душно
1014.9 1006.5
12 17.06 СВ 3-4
{4}
н/о н/о +25.8 +19.0 66 +31 +31 очень
душно
1014.8 1006.3
13 17.06 СВ 3-4
{4}
н/о н/о +26.7 +18.0 59 +31 +31 душно 1014.5 1006.1
14 17.06 В 2-3
{4}
н/о н/о +25.1 +17.0 61 +29 +29 душно 1014.5 1006.0
15 17.06 СВ 2-2
{3}
н/о н/о +26.3 +16.2 54 +30 +30 душно 1014.0 1005.5
16 17.06 СВ 3-2
{6}
н/о н/о +26.8 +14.9 48 +29 +29 жарко 1013.4 1005.0
17 17.06 С 2-3
{3}
н/о н/о +25.8 +14.0 48 +28 +28 жарко 1013.6 1005.1
18 17.06 С 2-2
{3}
н/о н/о +23.6 +13.5 53 +26 +26 жарко 1013.6 1005.1 +20.0 +27.6
19 17.06 СЗ 1-1
{2}
н/о н/о +21.4 +14.3 64 +24 +24 комфорт 1013.7 1005.1
20 17.06 Ю 1-1
{1}
н/о н/о +21.1 +14.0 64 +24 +24 комфорт 1013.9 1005.3
21 17.06 СВ 1-1
{1}
н/о н/о +21.2 +14.4 65 +24 +24 комфорт 1014.4 1005.8
22 17.06 ЮЗ 1-2
{2}
н/о н/о +20.3 +14.2 68 +24 +24 комфорт 1014.6 1006.0
23 17.06 СЗ 1-2
{3}
н/о н/о +23.5 +12.2 49 +25 +25 комфорт 1014.2 1005.7
00 18.06 С 2-3
{4}
н/о н/о +19.8 +17.0 84 +23 +23 комфорт 1015.1 1006.5
01 18.06 СЗ 3-3
{4}
н/о н/о +20.7 +16.1 75 +24 +24 комфорт 1014.2 1005.6
02 18.06 СЗ 2-3
{4}
н/о н/о +19.3 +14.5 74 +22 +22 комфорт 1013.9 1005.2
03 18.06 ЮЗ 1-1
{2}
н/о н/о +20.0 +12.7 63 +23 +23 комфорт 1013.8 1005.2
04 18.06 штиль 0-1
{2}
н/о н/о +22.0 +11.4 51 +24 +24 комфорт 1013.8 1005.2
05 18.06 Ю 1-1
{1}
н/о н/о +21.7 +12.0 54 +24 +24 комфорт 1014.2 1005.6
06 18.06 Ю 1
{3}
н/о н/о +22.7 +13.5 56 +26 +26 жарко 1014.6 1006.0 +18.9 +23.5
07 18.06 С 2-3
{3}
н/о н/о +26.0 +13.8 47 +28 +28 жарко 1015.0 1006.5
08 18.06 С 2-4
{4}
н/о н/о +28.2 +12.9 39 +30 +30 жарко 1014.9 1006.5
09 18.06 СВ 3-4
{4}
н/о н/о +28.5 +15.4 45 +31 +31 душно 1015.1 1006.7
10 18.06 СВ 2-3
{3}
н/о н/о +29.2 +14.2 40 +31 +31 жарко 1015.3 1006.9
11 18.06 СВ 3-4
{4}
н/о н/о +29.0 +13.6 39 +31 +31 жарко 1015.4 1007.0
12 18.06 СВ 2-4
{4}
н/о н/о +30.0 +12.0 33 +31 +31 жарко 1015.1 1006.7
13 18.06 В 1-3
{4}
н/о н/о +28.8 +14.2 41 +31 +31 жарко 1014.9 1006.5
14 18.06 В 2-3
{3}
н/о н/о +28.7 +13.4 39 +30 +30 жарко 1014.7 1006.3
15 18.06 В 1-2
{3}
н/о н/о +28.5 +13.2 39 +30 +30 жарко 1014.3 1005.9
16 18.06 В 1-2
{2}
н/о н/о +27.7 +13.2 41 +29 +29 жарко 1013.8 1005.4
17 18.06 В 1-2
{2}
н/о н/о +26.9 +15.0 48 +30 +30 душно 1013.8 1005.4
18 18.06 ЮВ 1-1
{1}
н/о н/о +25.6 +15.9 55 +29 +29 душно 1014.1 1005.6 +22.8 +30.5
19 18.06 Ю 1-2
{2}
н/о н/о +23.7 +15.5 60 +27 +27 жарко 1014.1 1005.6
20 18.06 ЮЗ 1-1
{2}
н/о н/о +23.2 +15.0 60 +27 +27 душно 1014.6 1006.0
21 18.06 штиль 0-1
{1}
н/о н/о +23.0 +14.3 58 +27 +27 душно 1014.5 1005.9
22 18.06 С 2-3
{3}
н/о н/о +22.1 +15.0 64 +26 +26 душно 1014.7 1006.1
23 18.06 С 3-3
{3}
н/о н/о +21.9 +16.0 69 +26 +26 душно 1014.6 1006.0
00 19.06 С 2-3
{3}
н/о н/о +21.6 +14.0 62 +24 +24 комфорт 1014.2 1005.6
01 19.06 ЮЗ 1-1
{2}
н/о н/о +20.5 +13.7 65 +24 +24 комфорт 1014.0 1005.4
02 19.06 СВ 1-1
{1}
н/о н/о +20.8 +13.5 63 +25 +25 комфорт 1013.8 1005.2
03 19.06 штиль 0-1
{1}
н/о н/о +20.9 +16.9 78 +24 +24 комфорт 1014.1 1005.5
04 19.06 штиль 0-1
{1}
н/о н/о +21.4 +18.8 85 +26 +26 душно 1014.1 1005.5
05 19.06 СВ 1-1
{1}
н/о н/о +21.4 +19.1 87 +26 +26 душно 1014.3 1005.7
06 19.06 СВ 1
{2}
н/о н/о +22.6 +17.9 75 +28 +28 душно 1014.5 1005.9 +20.3 +25.5
07 19.06 В 1-2
{2}
н/о н/о +26.2 +19.3 66 +32 +32 очень
душно
1014.4 1006.0
08 19.06 В 1-2
{3}
н/о н/о +26.7 +18.3 60 +31 +31 душно 1014.4 1006.0
09 19.06 В 2-3
{3}
н/о н/о +26.9 +19.8 65 +33 +33 очень
душно
1014.5 1006.1
10 19.06 В 2-3
{3}
н/о н/о +27.4 +19.7 63 +33 +33 очень
душно
1014.5 1006.1
11 19.06 В 2-3
{3}
н/о н/о +27.3 +18.6 59 +32 +32 очень
душно
1014.7 1006.3
12 19.06 ЮВ 2-3
{3}
н/о н/о +27.8 +19.1 59 +33 +33 очень
душно
1014.5 1006.1
13 19.06 ЮВ 2-3
{4}
н/о н/о +27.1 +17.6 56 +31 +31 душно 1014.4 1006.0
14 19.06 ЮВ 2-3
{3}
н/о н/о +27.9 +17.7 54 +32 +32 душно 1014.0 1005.6
15 19.06 В 2-3
{3}
20 км 3/3 900 м
[Cu hum]
+27.1 +20.2 66 +33 +41 очень
душно
1014.0 1005.6
16 19.06 В 1-2
{3}
н/о н/о +27.0 +17.5 56 +31 +31 душно 1013.5 1005.1
17 19.06 В 1-2
{2}
н/о н/о +26.4 +17.7 59 +31 +31 душно 1013.3 1004.9
18 19.06 ЮВ 1-2
{2}
н/о н/о +25.2 +18.6 67 +30 +30 душно 1013.5 1005.0 +22.6 +28.2
19 19.06 Ю 1-1
{1}
н/о н/о +23.2 +18.7 76 +29 +29 душно 1013.5 1005.0
20 19.06 ЮЗ 1-1
{1}
н/о н/о +22.3 +18.9 81 +28 +28 душно 1013.9 1005.3
21 19.06 Ю 1-1
{1}
н/о н/о +22.1 +18.7 81 +27 +27 душно 1014.1 1005.5
22 19.06 ЮЗ 1-1
{1}
н/о н/о +21.6 +18.2 81 +26 +26 душно 1014.2 1005.6
23 19.06 С 1-2
{2}
н/о н/о +21.7 +16.4 72 +26 +26 душно 1013.9 1005.3
00 20.06 С 2-2
{2}
н/о н/о +21.0 +16.8 77 +26 +26 душно 1013.9 1005.3
01 20.06 СЗ 1-1
{2}
н/о н/о +21.6 +17.2 76 +26 +26 душно 1013.5 1004.9
02 20.06 С 1-1
{1}
н/о н/о +21.2 +16.2 73 +25 +25 комфорт 1013.5 1004.9
03 20.06 СЗ 2-3
{3}
н/о н/о +20.4 +16.0 76 +24 +24 комфорт 1013.4 1004.8
04 20.06 С 3-3
{3}
н/о н/о +20.1 +16.9 82 +23 +23 комфорт 1013.7 1005.1
05 20.06 СЗ 2-2
{3}
н/о н/о +21.1 +17.1 78 +25 +25 комфорт 1014.0 1005.4
06 20.06 С 1
{5}
20 км 3/1 900 м
[Cu hum Ci fib]
+22.5 +18.9 80 +28 +31 душно 1014.1 1005.5 +19.7 +25.1
07 20.06 СВ 2-3
{3}
н/о н/о +25.6 +20.2 72 +32 +32 очень
душно
1013.9 1005.4
08 20.06 СВ 2-3
{3}
н/о н/о +27.4 +20.0 64 +34 +34 очень
душно
1013.8 1005.4
09 20.06 В 2-3
{3}
н/о н/о +25.8 +20.1 71 +32 +32 очень
душно
1013.6 1005.2
10 20.06 СВ 3-4
{4}
н/о н/о +27.2 +20.5 67 +34 +34 очень
душно
1013.7 1005.3
11 20.06 В 2-3
{4}
н/о н/о +26.3 +20.2 69 +32 +32 очень
душно
1014.2 1005.8
12 20.06 В 3-4
{4}
н/о н/о +26.1 +19.7 68 +32 +32 очень
душно
1013.5 1005.1
13 20.06 В 2-3
{3}
н/о н/о +26.5 +19.9 67 +32 +32 очень
душно
1013.5 1005.1
15 20.06 В 2-3
{3}
20 км 3/3 900 м
[Cu hum]
+26.6 +19.2 64 +32 +39 очень
душно
1013.1 1004.7
16 20.06 В 2-2
{3}
н/о н/о +25.9 +19.1 66 +31 +31 очень
душно
1013.1 1004.7
17 20.06 ЮВ 1-2
{2}
н/о н/о +25.7 +18.1 63 +30 +30 душно 1012.9 1004.4
18 20.06 Ю 1
{4}
20 км 3/3 900 м
[Cu hum]
+25.0 +16.7 60 +29 +29 душно 1012.8 1004.3 +22.6 +27.4
19 20.06 Ю 1-2
{2}
н/о н/о +23.2 +18.9 77 +29 +29 душно 1012.9 1004.4
20 20.06 ЮЗ 1-2
{3}
н/о н/о +21.8 +17.6 77 +26 +26 душно 1013.6 1005.0
21 20.06 СЗ 2-3
{3}
н/о н/о +22.0 +17.8 77 +27 +27 душно 1013.8 1005.2

 

Местоположение метеостанции Алистро (Франция): широта 42.27 долгота 9.53 высота над уровнем моря 77 м.

В архиве по умолчанию представлена погода в Алистро за последнюю неделю. Архивные данные за месяц целиком и за предыдущие месяцы, начиная с января 2011 года, Вы можете получить, выбрав интересующий диапазон дат из раскрывающегося списка и нажав кнопку "Ввод!".


*Определитесь, кто Вы:
робот инопланетянин человек

Внимание! Время в таблицах - всемирное. Для получения местного времени необходимо прибавить поправку, которая равна 1 ч.

Смотрите также архив погоды в соседних городах и на ближайших метеорологических станциях:

Погода в Бастии (Франция) (31 км)
Погода в Соленцаре (Франция) (40 км)
Погода на Мысе Сагро (Франция) (59 км)
Погода в Л’Иль-Русе (Франция) (64 км)
Погода в Кальви (Франция) (67 км)
Погода в Аяччо (Франция) (72 км)
Погода на Мысе Корсика (Франция) (83 км)
Погода в Ла Парате (Франция) (85 км)
Погода на Mонте Каламита (Италия) (88 км)
Погода в Фигари (Франция) (93 км)

Пояснения к столбцам:

Ветер - указаны скорость ветра в м/с - средняя за 10 мин, порывы в срок и между сроками (в фигурных скобках) и направление, откуда дует ветер: С - северный, СВ - северо-восточный, В - восточный, ЮВ - юго-восточный, Ю - южный, ЮЗ - юго-западный, З - западный, СЗ - северо-западный.
Видимость - горизонтальная дальность видимости в метрах или километрах. При видимости от 1 до 10 км при отсутствии осадков обычно наблюдается дымка, при ухудшении видимости до 1 км и менее - туман. В сухую погоду видимость может ухудшаться дымом, пылью или мглою.
Явления - указаны атмосферные явления, наблюдавшиеся в срок или в последний час перед сроком; фигурными скобками обозначены явления, наблюдавшиеся между сроками (за 1-3 часа до срока); квадратными скобками обозначены град или гололедные отложения с указанием их диаметра в мм.
Облачность - указаны через наклонную черту общая и нижняя облачность в баллах и высота нижней границы облаков в метрах; квадратными скобками обозначены формы облаков: Ci - перистые, Cs - перисто-слоистые, Cc - перисто-кучевые, Ac - высококучевые, As - высокослоистые, Sc - слоисто-кучевые, Ns - слоисто-дождевые, Cu - кучевые, Cb - кучево-дождевые. Подробнее классификацию облаков см. в Атласе облаков (PDF).
T - Температура воздуха - температура, измеренная на высоте 2 м над землей.
Td - Температура точки росы - температура, при понижении до которой содержащийся в воздухе водяной пар достигнет насыщения.
f - Относительная влажность воздуха - влажноcть воздуха, измеренная на высоте 2 м над землей.
Te - Эффективная температура - температура, которую ощущает одетый по сезону человек в тени. Характеристика душности погоды. При расчете учитывается влияние влажности воздуха и скорости ветра на теплоощущения человека.
Tes - Эффективная температура на солнце - температура, которую ощущает человек, с поправкой на солнечный нагрев. Характеристика знойности погоды. Зависит от высоты солнца над горизонтом, облачности и скорости ветра. Ночью, в пасмурную погоду, а также при ветре 12 м/с и более поправка равна нулю.
P - Атмосферное давление - приведенное к уровню моря атмосферное давление.
Po - Атмосферное давление - измеренное на уровне метеостанции атмосферное давление.
Tmin - Минимальная температура - минимум температуры воздуха на высоте 2 м над землей.
Tmax - Максимальная температура - максимум температуры воздуха на высоте 2 м над землей.
R - Количество осадков - Количество выпавших осадков за период времени, мм. При наведении курсора мыши на число - период времени, за который выпало указанное количество осадков.
R24 - Количество осадков - Количество выпавших осадков за 24 часа, мм.
S - Снежный покров - Высота снежного покрова, см. При наведении курсора мыши на число - состояние снежного покрова и степень покрытия местности в баллах.